Regional Weather Roundup
Issued by NWS

Home | Current Version | Previous Version | Text Only | Print | Product List | Glossary Off
Versions: 1 2 3 4 5 6 7 8 9 10 11 12 13 14 15 16 17 18 19 20 21 22 23 24 25 26 27 28 29 30 31 32 33 34 35 36 37 38 39 40 41 42 43 44 45 46 47 48 49 50

000
ASUS43 KDTX 201410
RWRMI
MICHIGAN HOURLY REGIONAL WEATHER ROUNDUP
NATIONAL WEATHER SERVICE DETROIT/PONTIAC MI
ISSUED BY NATIONAL WEATHER SERVICE GRAND RAPIDS MI
1000 AM EDT SUN AUG 20 2017

NOTE: "FAIR" INDICATES FEW OR NO CLOUDS BELOW 12,000 FEET WITH NO
SIGNIFICANT WEATHER AND/OR OBSTRUCTION TO VISIBILITY.

MIZ047>049-052>055-059>063-066>070-074>076-081>083-201500-
SOUTHEAST LOWER MICHIGAN

CITY           SKY/WX    TMP DP  RH WIND       PRES   REMARKS
ADRIAN         SUNNY     70  63  78 SW6       30.11S
ALMA           SUNNY     69  59  70 SW5       30.08F
ANN ARBOR      SUNNY     71  62  73 MISG      30.10S
BAD AXE        SUNNY     71  59  65 W6        30.09S
DETROIT CITY   SUNNY     74  61  63 S6        30.09S
DETROIT        SUNNY     73  61  65 S6        30.11S
FLINT          SUNNY     71  58  63 W6        30.10S
GROSSE ILE     SUNNY     73  63  71 CALM      30.09S
HILLSDALE      SUNNY     72  61  68 S6        30.10F
HOWELL         SUNNY     72  60  65 S3        30.10S

CITY           SKY/WX    TMP DP  RH WIND       PRES   REMARKS
JACKSON        SUNNY     72  60  66 SW8       30.09F
LANSING        SUNNY     72  59  63 S7        30.09S
MASON          SUNNY     73  63  71 CALM      30.10S
MONROE         SUNNY     72  63  72 SW3       30.10R
MT. CLEMENS    SUNNY     77  62  59 SW6       30.08S
PONTIAC        MOSUNNY   73  60  63 SW6       30.10R
PORT HOPE        N/A     72  62  71 VRB6      30.05R
PORT HURON     SUNNY     73  59  60 W3        30.11R
TRI CITIES     SUNNY     69  61  75 SW6       30.08F
YPSILANTI      SUNNY     73  64  73 S3        30.10S
$$
MIZ043>046-050>051-056>058-064>065-071>073-077>080-201500-
SOUTHWEST LOWER MICHIGAN

CITY           SKY/WX    TMP DP  RH WIND       PRES   REMARKS
BATTLE CREEK   SUNNY     72  61  68 S8        30.09F
BENTON HARBOR  SUNNY     74  60  61 SE6       30.05F
BIG RAPIDS     SUNNY     69  64  82 S5        30.07S
COLDWATER      SUNNY     73  62  67 SW5       30.09F
HOLLAND        SUNNY     70  60  70 S6        30.07S
GRAND RAPIDS   PTSUNNY   71  60  68 S7        30.07S
KALAMAZOO      SUNNY     72  59  63 S8        30.08F
MARSHALL       SUNNY     71  61  69 S5        30.09F
MOUNT PLEASANT SUNNY     75  56  51 SW3       30.06S
MUSKEGON       PTSUNNY   74  65  73 S5        30.06S
STURGIS        SUNNY     72  62  70 S5        30.08F
$$
MIZ016>042-201500-
NORTHERN LOWER MICHIGAN

CITY           SKY/WX    TMP DP  RH WIND       PRES   REMARKS
ALPENA         SUNNY     72  64  76 SW6       30.03R
BEAVER ISLAND  SUNNY     72  64  77 SW10      30.00S
BELLAIRE       SUNNY     70  63  78 S5        30.02F
CADILLAC       SUNNY     71  63  74 SW6       30.07R
CHARLEVOIX     SUNNY     72  66  81 S6        30.04S
GAYLORD        SUNNY     69  61  75 W8        30.05S
HOUGHTON LAKE  SUNNY     69  62  78 SW6       30.07S
MANISTEE       SUNNY     73  66  78 S3        30.03S
OSCODA         SUNNY     75  61  62 SW9       30.04S
PELLSTON       SUNNY     73  64  73 W6        30.01S
TRAVERSE CITY  MOSUNNY   73  63  70 SW6       30.01S
LUDINGTON      SUNNY     73  62  68 SW7       30.04S
$$
MIZ007>008-015-201500-
EASTERN UPPER MICHIGAN

CITY           SKY/WX    TMP DP  RH WIND       PRES   REMARKS
KINROSS        CLOUDY    67  67 100 SW6       30.00S FOG
MACKINAC ISLAN SUNNY     69  67  94 SW8       30.00F
NEWBERRY       SUNNY     67  66  97 S8        29.98S
S. S. MARIE    FOG       62  61  96 VRB5      29.99S VSB 1/4
$$
MIZ004>006-011>014-085-201500-
CENTRAL UPPER MICHIGAN

CITY           SKY/WX    TMP DP  RH WIND       PRES   REMARKS
MANISTIQUE     SUNNY     68  62  81 S5        29.98S
ESCANABA       SUNNY     70  62  76 S6        29.98S
MENOMINEE      CLOUDY    70  62  76 SW5       30.00S
SAWYER-GWINN   SUNNY     66  61  82 SW7       29.97F
$$
MIZ001>003-009>011-084-201500-
WESTERN UPPER MICHIGAN

CITY           SKY/WX    TMP DP  RH WIND       PRES   REMARKS
IRON MOUNTAIN  SUNNY     71  59  65 VRB5      29.97S
HOUGHTON       SUNNY     70  61  73 VRB6      29.90F
COPPER HARBOR    N/A     72  61  68 W8        29.88F
IRONWOOD       SUNNY     69  62  78 S8        29.92F
$$

ABBREVIATIONS USED IN REMARKS
   TC - TEMPERATURE IN CELSIUS
  WCI - WIND CHILL INDEX
   HX - HEAT INDEX
  VSB - VISIBILITY





USA.gov is the U.S. government's official web portal to all federal, state and local government web resources and services.